STARLINK-34606

Last updated on Sat Aug 02 2025 00:02:05 GMT+0000 (Coordinated Universal Time)

1 64730U 25144G 25213.29021401 .00043426 00000+0 10885-2 0 9990 2 64730 53.1605 126.4851 0001345 63.8106 296.3037 15.39646781 5944
UTC large
Height (km)
Speed (km/s)
/
Latitude / Longitude
Inclination (degrees)
Orbital Period (minutes)
Azimuth
Elevation
Range (km)
Doppler Factor

Next 0 passes for location: London (51.5072 / 0.1276)

Sorry there are no passes over London.